Back to catalog

COSMOS 2491 DEB

AlivePO
NORAD 57563·DEBRIS·🇷🇺 Russia

Launched Dec 25, 2013 from Plesetsk Cosmodrome

Loading…

Next Passes (next 24 hours)

TLE

FreshSource: Space-Track

Epoch: Sep 13, 2026, 05:42 UTC

1 57563U 13076BA  26256.23807481  .00001691  00000-0  92851-2 0  9991
2 57563  82.4719  80.2688 0049373 199.5154 160.4048 12.62840468153734

Track COSMOS 2491 DEB in real time with AllMySat

Download on the App Store